Theta_e
306 307 307 308 308 307 306 305 306 306 308 308 306 306 308 310 305 303 312 316 311 318 319 326 328 332 332 332 333 334 336 337 339 341 340 339 339 340 340 342 345 346 346 347 346 347 348 349 350 352 353 354 355 356 356 354 354 357 361 361 360 359 362 362 360 362 361 359 362 365 365 367 367 366 363 357 353 352 352 350 349 351 349 347 350 354 356
306 306 308 309 307 307 307 306 308 309 308 308 308 307 309 309 311 312 315 322 321 322 326 326 332 334 333 333 334 335 335 336 337 338 339 339 340 339 340 343 341 344 345 346 346 346 347 347 348 349 350 349 350 352 354 355 355 357 358 359 359 358 357 360 362 363 363 364 364 365 365 365 368 368 366 365 362 359 356 355 357 357 356 351 349 351 353
305 307 308 308 308 308 306 309 309 309 309 308 308 308 312 312 313 313 318 318 319 327 331 330 333 334 334 334 331 332 334 335 336 337 339 339 338 338 340 341 341 342 343 344 345 346 346 347 348 348 349 350 351 352 352 352 352 353 354 355 357 356 357 360 361 360 359 359 360 361 363 363 363 363 362 362 361 361 361 362 361 361 356 354 351 349 350
303 308 308 309 309 308 309 309 311 312 309 306 310 313 317 314 314 313 318 317 319 326 330 330 331 331 331 330 331 332 333 335 336 336 337 337 335 334 333 337 340 340 340 341 342 343 343 344 344 346 349 351 350 349 351 352 354 357 357 357 356 356 355 356 356 356 356 357 357 357 357 357 358 359 360 359 359 362 362 360 363 360 356 356 357 354 352
304 307 307 307 308 307 304 304 309 312 312 317 317 317 318 319 316 315 313 313 323 327 328 327 328 329 330 331 332 333 334 335 336 336 334 334 335 334 335 337 338 339 339 339 339 340 341 343 344 346 348 347 348 350 350 352 355 355 355 355 354 353 352 353 354 354 354 354 353 354 356 356 356 356 358 358 358 358 357 359 359 359 358 356 357 357 354
302 305 306 307 304 297 296 308 314 316 312 315 314 316 318 319 320 319 322 324 327 326 326 325 327 328 331 332 336 336 335 334 333 333 334 334 337 337 337 337 336 336 337 337 339 340 340 340 340 341 341 340 341 343 345 349 351 350 349 348 347 346 347 350 352 353 354 353 353 354 356 356 356 355 355 356 357 358 357 358 358 359 358 357 359 361 359
301 304 306 300 295 297 308 313 315 318 316 316 314 317 318 319 322 323 321 325 326 326 328 328 330 332 331 333 333 333 332 331 330 331 329 333 338 337 336 335 335 335 336 337 338 336 335 335 337 338 337 337 336 335 337 340 343 343 341 339 339 341 341 342 346 348 350 351 351 350 352 353 352 354 359 357 356 357 360 361 359 357 357 353 357 356 359
303 301 299 291 294 306 309 311 314 316 318 317 316 312 318 320 321 323 323 325 327 327 327 328 330 329 329 331 331 331 334 335 334 333 331 334 336 335 336 336 335 334 334 335 334 334 335 335 334 333 332 331 330 329 331 332 334 336 336 335 335 338 339 341 341 342 343 344 346 347 347 348 350 351 354 353 357 360 360 356 352 354 358 357 353 350 349
298 301 299 299 305 305 307 308 310 310 312 311 312 308 312 320 321 324 323 325 326 327 326 326 326 329 328 326 326 329 332 333 335 336 336 336 334 336 337 336 334 335 335 332 331 332 333 332 331 330 330 329 329 329 329 329 329 329 330 331 332 334 336 339 341 342 342 341 341 341 343 345 345 345 345 347 348 352 354 356 353 353 351 352 355 351 347
303 300 298 298 298 292 301 310 312 314 314 315 317 315 309 320 323 326 325 324 325 325 325 325 326 327 323 318 319 323 325 328 330 332 331 335 335 334 334 334 335 336 335 333 332 330 329 329 329 331 331 330 329 328 327 327 327 327 327 326 329 330 332 334 338 339 340 340 339 338 338 338 339 341 343 346 347 349 349 350 351 350 349 353 351 348 348
302 300 297 295 293 298 309 310 312 313 314 314 316 313 303 314 321 324 326 326 326 325 324 325 326 324 316 313 317 322 324 326 328 328 333 334 336 334 333 333 332 332 333 332 330 330 329 326 328 329 329 328 325 323 324 324 325 324 324 325 326 327 330 333 333 335 337 337 337 338 337 337 338 339 339 343 346 349 349 348 348 350 352 352 353 349 348
305 301 296 295 300 302 308 311 312 313 314 315 312 299 301 312 318 323 325 325 327 328 329 329 327 321 315 315 319 325 326 327 327 327 329 331 334 335 335 335 334 332 333 332 330 328 327 327 328 327 326 325 326 325 325 325 324 324 327 327 329 328 329 333 333 333 332 335 335 335 337 337 337 337 339 342 343 346 348 349 349 348 348 351 346 346 345
300 300 301 302 302 307 310 311 314 316 317 311 300 294 305 315 319 322 325 322 326 330 328 326 321 324 326 324 325 326 328 328 329 330 331 331 332 331 331 330 333 330 328 327 325 324 326 325 323 325 327 326 325 325 323 322 322 324 325 324 324 329 333 331 330 330 330 330 333 335 335 335 336 338 339 339 342 344 345 345 343 342 343 347 347 345 345
300 301 298 299 302 308 312 315 315 318 314 304 299 309 318 319 319 324 324 324 327 325 327 328 326 328 328 326 327 326 327 326 326 327 329 330 328 329 332 331 331 330 327 328 326 325 325 324 325 325 325 325 325 324 322 319 319 322 328 329 327 326 328 329 326 325 327 327 331 333 334 335 335 336 338 340 339 339 339 342 338 335 339 342 341 344 344
304 304 298 295 291 308 316 315 315 317 308 307 315 318 318 320 320 322 323 325 326 328 325 327 328 327 326 327 327 326 325 325 326 327 329 329 328 328 329 330 328 326 325 325 326 326 326 324 325 325 324 324 324 324 324 326 327 327 324 322 326 328 329 328 327 326 329 330 331 330 331 333 332 332 333 336 337 336 339 338 333 333 337 338 338 338 340
295 298 295 294 305 312 317 316 308 311 314 318 320 319 316 319 321 323 322 324 326 327 327 327 327 328 327 327 326 326 326 326 326 327 328 329 330 329 329 328 327 327 327 326 325 325 324 326 325 324 324 324 325 324 324 327 327 328 328 327 326 323 324 325 328 328 327 323 325 330 329 331 331 332 333 335 336 337 337 338 335 335 336 336 337 335 334
306 302 305 311 313 315 317 316 314 315 317 319 320 318 317 318 319 325 323 322 325 326 327 328 328 327 328 327 327 326 325 326 326 327 327 327 329 328 327 326 328 327 326 325 325 326 327 327 327 325 324 324 323 322 324 327 327 326 326 327 327 326 326 325 325 323 326 328 327 324 322 328 330 330 329 331 332 335 335 335 333 333 337 334 334 333 333
313 313 313 315 314 314 314 318 319 317 317 317 318 318 318 320 321 323 324 325 325 326 327 325 325 327 328 328 326 325 325 325 327 328 328 328 329 328 327 328 328 326 325 325 325 324 325 325 325 327 325 325 324 325 326 326 327 327 325 324 325 324 325 325 324 324 324 322 322 325 326 323 322 326 325 326 327 329 330 331 332 333 332 331 332 333 332
304 299 314 312 312 316 316 315 317 319 319 318 318 319 319 320 321 322 325 327 325 325 326 326 328 328 329 328 327 325 325 326 327 327 327 328 328 327 327 328 327 325 324 321 322 322 323 325 325 325 326 325 326 327 327 327 327 327 327 325 324 325 324 324 324 325 324 324 322 323 324 324 325 323 322 323 326 332 329 328 327 328 329 330 330 330 331
305 308 313 314 316 317 318 317 317 316 317 319 319 319 320 322 323 322 324 326 326 327 326 327 327 327 328 328 328 326 326 326 327 328 328 328 328 329 329 327 326 326 324 322 322 322 323 325 326 325 326 325 327 328 327 326 325 327 327 327 326 326 324 324 323 323 318 314 322 320 319 323 323 322 323 323 323 323 324 324 323 328 325 327 329 330 329
309 313 313 313 316 313 313 317 320 320 319 319 318 319 319 319 320 322 322 322 323 324 325 327 326 325 326 328 329 328 326 327 327 328 329 329 328 329 328 327 327 326 324 323 324 323 322 323 324 325 325 326 326 326 326 326 326 324 321 321 324 321 321 321 316 321 321 320 320 319 321 323 320 320 319 323 326 325 321 321 319 318 324 327 328 328 327
304 305 309 311 305 307 313 315 316 317 319 320 319 319 318 318 319 320 320 321 322 324 324 325 325 324 326 327 328 329 328 328 328 327 328 329 330 329 329 328 328 327 326 326 325 324 324 325 324 324 323 323 324 323 324 324 324 324 323 323 323 322 323 322 321 320 322 320 319 321 320 321 324 320 314 308 313 323 320 315 307 303 306 318 317 322 327
303 311 314 315 314 316 317 317 318 318 319 320 319 319 319 319 319 319 320 320 321 321 323 324 324 325 325 325 326 327 328 327 329 330 329 328 329 328 329 327 327 327 326 326 325 325 325 325 323 323 324 324 325 323 325 325 324 324 325 323 322 322 321 319 314 321 321 321 322 322 322 319 322 322 320 316 301 305 313 313 304 296 295 297 301 306 318
314 316 316 315 312 312 316 319 319 319 320 320 319 319 320 319 319 320 321 320 320 321 322 322 324 324 325 326 324 324 325 327 330 330 330 329 329 327 327 328 327 326 325 325 325 324 325 325 323 323 320 321 323 322 323 325 324 324 324 321 320 321 322 322 320 322 322 321 322 323 323 321 324 320 321 321 317 304 302 304 301 298 298 296 294 295 299
313 316 317 317 316 318 320 320 320 320 320 320 319 320 321 320 320 320 320 321 321 321 321 322 322 323 324 324 324 324 325 326 328 328 329 327 326 326 325 326 327 326 325 325 326 326 325 324 322 322 322 321 322 321 322 322 323 323 323 323 320 319 320 321 322 321 320 322 320 321 321 323 324 322 321 323 323 319 313 303 301 299 298 295 292 293 295
319 318 318 318 318 318 319 318 317 318 318 317 318 320 319 318 319 320 321 320 321 322 322 322 322 323 322 323 323 323 324 324 326 326 328 328 326 325 325 326 326 327 326 326 327 326 325 324 323 323 323 321 323 323 321 322 321 322 322 321 322 321 320 319 319 320 319 321 319 321 322 319 321 321 322 321 322 323 322 317 315 309 301 299 296 293 295
318 319 316 314 314 316 316 313 312 318 318 317 319 319 320 322 319 319 320 321 321 320 321 322 323 323 323 324 324 324 323 324 325 325 325 326 326 326 326 327 328 328 327 327 327 326 324 324 322 322 321 320 323 322 323 322 322 322 320 321 318 311 310 313 321 321 319 320 320 320 321 321 321 321 322 323 320 318 320 321 322 322 321 318 303 296 310
318 318 317 313 311 313 315 315 320 320 319 318 317 317 319 319 318 317 317 319 321 321 322 322 322 322 322 322 323 323 322 322 323 324 323 323 324 326 324 324 324 327 328 326 325 326 323 322 321 321 320 322 323 324 322 322 322 320 319 318 319 321 319 317 318 318 319 321 318 319 320 320 321 319 320 319 319 321 320 320 318 320 321 323 320 310 300
317 317 317 318 320 320 320 320 319 317 317 319 319 319 316 315 316 315 315 316 318 318 319 321 323 322 321 321 322 321 321 321 321 322 324 325 325 326 326 325 324 325 326 326 325 326 324 322 322 321 321 323 323 323 323 323 323 321 320 320 319 318 319 318 317 318 319 318 320 319 314 314 315 317 319 319 319 319 321 320 321 320 321 323 323 320 312
317 319 318 318 320 319 318 316 315 316 316 318 317 316 316 315 314 315 316 315 317 316 318 320 320 320 321 320 321 321 321 321 322 323 324 324 325 326 327 328 327 326 326 327 326 326 324 323 322 321 322 324 323 324 324 323 322 323 322 320 320 320 320 320 319 320 319 319 318 313 316 316 319 317 316 317 319 318 318 319 320 318 317 321 318 318 316
318 319 318 318 317 317 315 316 317 317 317 317 316 316 317 315 314 315 316 317 316 314 318 317 318 318 319 320 321 322 322 323 323 324 326 327 327 327 326 328 325 323 324 325 326 326 324 324 323 323 325 326 324 324 323 321 322 322 322 319 320 312 308 307 307 313 316 317 318 318 318 318 318 317 317 316 317 317 318 319 319 318 319 319 319 319 320
317 317 317 317 316 316 316 317 316 316 316 316 315 314 315 315 314 314 315 314 315 315 316 317 316 317 318 320 320 320 320 321 322 323 324 326 326 327 328 327 327 325 325 325 326 326 326 325 324 325 327 327 325 324 323 322 322 322 320 319 319 318 311 308 313 312 313 315 315 316 316 315 315 317 317 317 316 316 316 316 316 317 317 318 318 319 319
315 314 314 315 315 315 314 315 315 315 316 316 316 316 316 316 316 315 315 315 315 316 317 317 318 319 319 319 319 319 319 319 319 319 319 321 324 325 326 327 327 326 325 324 325 327 326 325 326 327 328 327 326 324 322 322 322 320 320 319 319 318 315 312 315 315 315 313 314 315 317 317 316 316 315 316 316 315 314 314 315 316 316 317 317 317 312
316 315 315 317 316 314 314 315 316 316 316 317 317 316 316 316 316 316 316 316 316 316 315 316 319 319 318 318 318 318 317 316 315 316 317 318 319 321 325 326 327 325 325 326 324 325 326 326 327 326 328 327 326 324 323 322 322 320 320 319 318 317 317 315 312 312 313 314 315 315 314 314 313 311 311 313 315 315 314 316 314 314 314 315 316 315 306
319 318 319 318 319 318 318 316 316 316 315 314 315 315 316 316 316 316 316 316 316 315 316 316 317 316 316 316 315 315 314 313 314 315 316 317 318 319 320 321 323 326 325 325 325 325 326 326 327 328 327 327 325 324 322 322 320 320 320 320 319 317 317 317 316 315 314 314 315 315 315 313 313 313 313 312 312 313 314 314 313 312 312 313 314 315 312
319 319 319 318 318 318 317 317 317 316 316 315 315 315 316 318 317 316 315 316 316 316 316 316 316 315 314 314 314 313 313 313 314 315 315 316 317 318 318 318 318 318 320 323 326 325 325 325 327 328 327 326 324 323 322 321 321 319 321 319 317 316 316 315 315 315 314 314 313 313 312 312 313 313 313 314 313 313 312 312 312 312 312 312 313 313 313
320 319 319 319 319 319 318 319 318 318 316 316 316 315 315 315 315 316 316 315 315 315 315 314 313 313 313 313 313 313 313 313 313 313 313 315 315 316 317 316 316 316 316 315 319 324 325 324 325 325 324 324 323 323 322 321 321 319 319 317 316 316 313 314 314 314 313 313 311 312 312 311 312 311 311 310 311 310 311 311 311 311 310 310 311 311 310
320 320 320 319 319 319 318 318 317 318 316 316 316 315 315 314 315 315 314 314 314 314 314 313 313 313 313 313 313 311 311 312 312 313 314 314 314 314 314 313 313 313 313 314 319 320 322 325 325 323 325 323 323 322 321 320 319 318 317 315 314 314 313 313 313 312 312 312 312 312 311 311 310 312 311 311 311 310 309 310 309 308 309 309 310 309 309
319 320 319 318 318 318 317 317 317 316 315 314 314 314 315 314 314 314 313 313 314 314 313 312 312 311 311 310 310 310 310 311 311 312 312 312 312 311 311 312 313 314 315 317 318 319 320 322 325 323 323 322 322 320 318 317 316 316 316 316 315 314 312 312 311 311 311 312 311 311 311 310 310 310 310 310 309 309 308 308 307 307 307 307 307 306 308
317 317 317 316 316 316 315 315 314 314 314 314 313 312 312 312 312 311 311 311 312 313 312 311 310 308 309 308 308 308 309 310 311 311 311 311 311 311 311 312 314 315 317 317 317 317 319 323 322 322 321 320 319 317 315 313 313 314 314 314 313 313 312 310 310 309 309 310 310 308 309 309 308 308 308 308 308 307 307 307 306 306 305 305 305 306 306
316 316 316 316 314 314 313 312 312 312 313 312 313 313 313 312 311 310 309 310 310 311 310 310 308 308 308 308 308 308 309 309 310 310 311 310 309 309 309 309 314 316 317 317 317 317 318 319 318 317 319 318 317 314 312 312 312 313 313 312 312 310 308 308 307 307 307 307 308 308 308 309 308 307 306 306 306 306 306 305 305 304 304 304 304 304 304
315 315 314 313 313 312 312 312 311 311 312 312 312 311 311 311 310 308 309 309 309 309 309 309 309 309 309 309 309 309 309 310 310 311 310 309 308 309 308 309 314 314 316 316 316 316 318 317 317 316 317 316 315 314 312 311 312 312 311 309 308 308 307 306 306 305 307 306 306 308 309 308 307 306 305 306 305 304 304 303 303 303 303 303 303 302 303
314 313 312 312 311 311 311 311 311 310 310 310 310 310 309 309 309 309 308 308 307 308 308 308 308 308 308 308 308 308 308 310 309 309 309 310 312 312 310 310 313 317 315 316 318 319 318 318 317 316 314 314 312 311 310 310 310 310 309 307 307 306 306 306 305 305 305 304 303 303 303 303 303 303 303 303 303 303 302 302 302 302 302 302 302 302 302
313 312 311 311 311 311 311 311 311 310 309 308 309 309 309 309 309 308 307 306 306 306 307 307 307 306 306 307 307 307 307 308 308 308 307 307 309 312 316 314 314 315 312 316 316 316 315 314 313 311 311 311 310 309 310 309 308 307 306 305 305 304 304 304 304 304 304 303 303 302 302 303 302 302 302 301 302 302 302 301 301 301 301 301 301 300 300
312 312 312 311 311 310 310 309 308 308 307 308 309 308 308 307 308 307 306 306 306 306 306 306 306 306 305 305 306 308 308 309 309 308 306 306 305 307 314 313 315 314 313 313 314 312 313 311 309 308 308 308 307 306 307 307 305 304 304 304 304 303 303 303 302 302 302 303 302 302 303 302 301 301 301 301 301 301 301 301 301 301 300 300 299 299 299
311 311 310 307 310 309 309 308 308 308 307 307 307 307 306 306 306 306 306 306 305 305 305 305 305 305 306 306 308 309 310 311 314 312 310 311 308 308 313 312 315 312 310 310 311 308 308 307 307 306 305 305 304 303 304 303 303 302 303 302 303 303 303 302 303 303 303 303 302 302 302 301 301 301 301 301 301 300 300 300 300 300 299 299 299 299 299
310 310 310 309 308 308 309 308 308 308 307 306 305 304 305 306 306 306 305 306 305 305 306 306 306 307 307 306 307 307 307 308 311 313 313 312 312 310 308 307 307 307 309 309 308 307 306 306 306 305 304 303 302 302 302 302 302 302 301 302 302 303 302 302 302 303 303 302 302 302 301 301 301 301 301 300 299 299 299 299 298 298 299 299 299 299 298
310 309 309 308 308 308 308 308 307 306 305 305 305 304 305 306 306 305 305 306 306 306 305 306 306 307 308 308 309 308 310 309 305 305 308 308 309 308 307 306 306 306 305 305 304 305 306 305 305 303 302 301 301 301 300 300 300 301 301 301 301 301 301 301 302 303 302 300 300 300 300 299 299 299 299 299 298 299 299 298 298 299 299 299 298 298 298
309 309 308 307 307 307 307 307 306 305 305 306 305 304 305 305 305 305 304 305 305 304 304 304 305 306 307 308 308 308 310 310 308 304 305 304 303 303 303 303 303 303 303 302 302 304 304 304 303 302 301 300 300 300 301 300 300 301 300 300 300 301 302 302 301 301 301 300 300 299 299 299 299 299 298 298 298 298 298 298 298 298 298 298 298 298 298
309 307 307 306 305 306 306 305 305 306 306 306 305 305 306 305 303 303 304 304 304 304 304 304 304 305 305 306 307 307 307 306 305 305 305 304 304 303 303 301 300 300 301 303 301 300 301 301 301 300 300 300 305 301 300 300 301 301 301 301 301 301 301 300 301 300 301 300 300 299 299 298 299 298 298 298 298 298 298 298 298 298 296 297 297 298 298
307 306 306 307 307 308 308 308 307 307 307 305 306 306 306 305 303 304 304 304 304 303 302 303 303 304 304 305 305 305 305 305 305 304 304 304 303 301 301 301 301 301 302 301 301 302 301 301 301 301 301 302 302 301 303 301 301 301 301 300 301 300 301 299 300 300 299 299 299 299 298 299 299 298 298 298 298 298 298 298 298 298 298 298 298 298 298
307 307 307 307 307 307 307 307 308 308 307 306 306 306 306 305 305 304 305 303 304 303 302 302 301 303 304 304 304 305 305 304 304 303 304 304 303 301 301 301 301 301 301 301 300 301 301 301 301 300 301 303 303 304 301 299 301 301 300 301 300 300 300 301 300 300 300 300 299 299 299 299 299 299 299 298 298 298 298 298 298 298 298 298 298 298 298
Wind_Speed
13 12 10 10 11 14 16 18 12 14 12 11 15 12 13 5 9 4 7 7 6 11 10 7 6 6 9 9 8 6 4 4 10 12 11 11 12 12 12 10 9 9 8 8 6 5 5 6 6 5 4 4 3 3 4 5 6 7 6 6 8 8 7 8 8 8 7 6 5 4 4 5 6 7 8 9 9 9 8 8 9 10 10 10 10 11 10
10 11 9 8 16 11 6 4 7 11 15 15 13 12 16 6 4 6 9 8 15 7 4 5 8 8 10 10 7 7 4 6 8 11 12 11 11 12 12 12 10 8 8 7 7 6 6 5 5 6 5 5 5 6 6 6 6 6 6 7 8 8 9 8 7 7 7 5 6 6 5 5 4 4 5 5 6 7 9 9 9 8 8 9 10 10 10
8 9 11 11 12 7 4 5 9 9 10 12 10 5 5 2 5 8 7 4 6 5 8 7 6 7 9 7 9 7 6 7 9 10 12 12 12 11 9 8 8 7 6 7 8 7 6 6 6 7 6 4 5 5 4 5 5 5 6 7 9 10 10 8 7 6 6 7 6 6 5 4 5 5 4 3 4 5 7 8 7 7 8 9 10 10 10
8 10 11 9 8 10 9 2 3 2 8 6 3 5 3 4 2 8 11 3 6 5 7 6 6 8 7 8 8 8 6 6 8 10 11 13 11 7 5 4 5 6 6 5 5 6 7 6 5 4 4 5 5 6 6 6 4 4 6 5 6 8 10 9 7 6 5 5 6 7 7 6 6 7 7 6 6 6 7 9 8 8 9 9 9 10 8
8 7 11 6 8 12 10 5 5 7 13 10 8 3 2 4 5 4 4 4 4 6 4 6 6 6 9 9 9 9 8 7 8 10 11 11 9 9 6 8 8 8 8 9 9 7 5 5 6 6 3 0 2 4 6 5 2 3 4 5 7 6 4 6 8 8 8 8 9 9 8 8 8 9 10 10 9 9 9 8 6 7 8 10 10 9 9
7 8 5 11 9 8 2 4 5 8 5 6 5 7 8 9 5 6 2 7 7 6 6 6 7 6 6 7 8 8 8 7 9 9 8 6 10 12 12 11 10 10 8 7 7 7 7 7 6 6 7 8 7 7 6 4 3 4 3 5 6 5 4 1 1 3 5 9 9 8 7 7 8 10 11 11 11 10 9 8 8 7 8 10 9 9 7
1 12 10 9 8 2 3 7 5 8 9 5 12 10 12 11 11 11 10 8 7 6 7 7 8 11 12 12 12 11 10 11 5 4 4 7 9 13 13 12 11 10 9 9 9 9 9 8 7 6 7 7 7 8 8 7 6 6 7 7 6 5 5 4 3 4 2 3 5 5 5 7 10 11 9 9 10 9 8 5 2 3 6 7 6 7 6
7 6 6 6 4 4 3 7 8 8 2 4 5 12 12 12 10 7 7 7 7 10 11 10 8 11 12 11 12 12 10 7 3 7 5 1 4 12 10 13 11 10 10 9 9 9 8 9 8 8 8 8 9 10 9 8 8 8 7 7 8 7 6 6 6 5 4 5 4 4 5 4 3 6 8 10 9 9 5 4 4 3 6 2 1 2 6
7 7 3 4 2 3 1 4 7 9 6 6 6 6 10 11 8 9 7 7 9 10 10 9 8 9 10 10 10 12 9 11 9 10 8 6 9 11 12 13 12 11 11 10 11 10 9 9 9 8 8 8 8 8 8 8 8 8 9 8 8 7 7 7 6 6 5 6 6 6 5 3 4 6 7 6 7 6 5 6 7 5 5 6 1 5 4
9 6 7 8 2 2 4 3 3 7 6 7 7 3 11 10 9 9 6 7 6 7 7 8 8 9 9 9 7 8 12 13 12 11 9 9 12 12 12 11 11 12 11 11 11 11 11 10 10 9 8 8 9 9 8 8 8 8 8 9 8 8 8 7 6 5 4 5 6 6 5 5 6 6 5 6 6 5 5 3 4 4 6 2 4 8 8
5 6 8 4 7 4 2 5 7 8 7 9 9 5 8 8 10 9 7 6 4 5 6 9 8 6 7 7 7 7 11 11 11 10 9 10 9 8 9 10 12 12 12 12 13 12 12 12 10 10 10 10 10 9 8 8 8 9 8 7 8 7 8 6 6 7 6 6 6 6 6 6 6 6 5 5 4 4 2 2 3 3 5 4 4 6 9
6 5 6 6 1 4 3 5 5 7 7 8 4 4 4 8 10 6 7 8 6 5 6 5 6 5 9 8 6 6 9 9 9 8 7 7 9 8 8 9 11 13 13 13 13 12 11 10 8 8 8 7 8 7 6 6 7 6 5 3 5 7 7 6 4 5 6 7 6 6 7 7 6 5 4 4 5 4 4 3 4 5 5 5 7 6 8
10 14 3 4 6 4 4 2 4 3 5 6 5 1 7 6 7 7 8 8 6 5 5 8 3 4 5 8 10 8 7 8 9 7 6 9 10 11 9 10 9 10 11 11 12 12 10 8 7 6 5 7 7 7 6 7 8 7 7 8 8 5 0 0 4 6 6 6 7 7 7 6 6 6 4 5 3 5 7 6 6 6 5 3 4 5 6
5 3 4 0 5 5 4 2 2 3 6 2 4 5 3 5 5 5 7 7 7 7 5 5 6 6 9 13 11 10 9 9 9 8 9 12 13 13 8 9 8 10 9 10 12 12 11 9 7 6 7 7 7 6 6 7 8 6 5 5 5 5 7 7 7 7 8 9 8 6 6 5 6 5 4 4 4 4 5 5 6 5 4 3 2 5 6
6 6 5 1 2 3 7 2 2 10 3 6 4 4 5 4 4 5 5 6 7 6 6 7 7 9 11 12 11 10 9 8 8 8 8 9 12 11 10 9 9 10 9 10 10 10 9 9 8 7 7 8 7 7 7 6 6 6 5 5 4 5 5 5 5 4 4 5 3 3 4 5 6 5 4 5 4 4 4 5 6 3 2 1 1 3 5
2 2 2 3 5 6 9 6 5 6 8 5 3 1 6 6 5 4 4 6 6 5 4 5 6 8 10 10 9 8 8 8 9 9 9 7 9 10 9 9 9 10 10 9 9 9 8 8 8 8 7 7 6 6 7 5 5 5 5 5 4 4 4 3 3 4 4 5 5 5 5 5 5 5 5 5 4 4 4 3 3 3 2 1 0 2 3
5 6 7 7 7 8 9 10 10 9 8 5 5 7 7 6 6 5 5 4 4 5 5 5 4 6 6 7 7 7 8 9 9 9 9 10 10 10 9 10 9 8 9 9 8 8 7 7 7 8 7 7 7 7 5 4 4 4 4 3 3 4 4 3 3 3 3 3 5 5 1 3 5 6 7 6 4 3 2 2 2 2 2 1 1 1 1
10 10 9 6 7 8 9 8 7 8 7 7 7 8 7 7 7 7 6 6 5 4 3 4 4 2 3 5 7 7 7 7 7 6 8 9 8 9 9 9 8 8 9 9 9 9 8 8 7 6 7 7 7 6 4 4 4 4 4 4 4 3 3 3 2 1 2 4 3 3 4 4 4 3 5 6 6 7 6 2 1 1 2 2 2 2 1
4 4 5 7 7 6 8 8 7 6 6 7 6 7 7 7 7 7 8 7 6 5 2 3 3 4 4 4 6 7 5 6 7 7 6 5 6 11 9 9 7 7 8 7 8 9 9 8 7 7 7 7 7 5 4 4 4 3 3 3 3 2 2 2 2 2 2 2 1 3 2 4 6 5 4 5 4 2 1 6 5 2 1 2 4 3 1
1 8 7 7 7 5 4 4 6 6 6 6 6 5 5 6 6 7 6 5 6 3 3 3 1 3 4 4 6 6 6 6 6 6 6 7 7 7 8 8 6 7 7 7 8 8 8 7 6 7 6 5 6 5 4 4 4 3 2 1 2 3 3 3 3 3 3 1 3 1 3 4 3 3 4 5 5 3 3 3 5 6 4 0 3 3 1
8 5 7 6 5 5 4 5 7 6 5 5 5 5 4 6 6 6 6 6 6 6 6 4 3 2 3 4 5 5 7 6 6 6 6 6 7 8 9 8 8 7 7 7 8 8 8 7 6 6 6 5 4 4 4 4 2 1 2 1 2 1 1 2 3 2 1 2 3 3 2 2 4 6 7 7 6 5 7 6 5 5 8 4 3 2 3
4 5 8 7 5 6 5 5 5 5 4 3 4 4 4 6 6 5 5 6 5 5 5 4 3 2 2 1 3 4 7 5 5 7 7 7 7 8 8 8 8 8 8 8 7 7 7 6 6 6 6 5 4 4 4 4 3 3 2 1 0 1 2 3 3 2 3 4 4 4 3 2 4 5 8 9 8 6 6 8 9 8 6 5 5 6 5
6 4 8 2 5 4 6 6 4 4 3 3 3 4 4 4 5 5 5 5 5 5 5 5 3 3 2 1 1 2 3 5 5 5 7 7 7 7 8 8 9 9 8 8 8 8 6 6 6 5 5 4 4 4 3 3 3 2 1 1 1 2 2 4 5 5 3 3 3 2 2 3 3 2 4 5 8 10 9 6 6 6 5 4 7 8 7
6 4 5 3 2 3 7 6 4 4 3 3 3 3 3 3 4 4 4 5 5 4 4 4 5 4 2 2 2 3 2 2 4 4 5 6 7 7 8 7 9 10 9 8 8 8 6 6 6 6 6 5 3 5 4 3 3 2 0 0 0 2 3 3 1 2 1 2 2 0 1 1 1 1 1 5 3 4 3 7 8 6 6 6 4 5 7
3 7 5 4 4 6 6 5 4 4 2 3 3 3 4 3 4 4 3 4 4 4 3 4 4 4 3 2 2 2 3 2 1 1 3 5 6 8 9 9 10 10 9 9 8 8 7 7 6 6 6 6 5 5 5 4 3 3 0 1 2 2 2 1 2 1 2 1 2 2 2 0 1 1 3 3 5 5 2 1 3 6 7 7 6 5 6
4 4 5 4 3 4 5 4 4 3 4 3 3 4 4 3 4 2 2 2 2 3 3 3 3 4 4 3 2 2 2 2 2 0 3 5 7 8 8 9 10 8 9 9 9 8 8 8 7 7 7 6 6 6 6 5 4 4 3 3 3 4 4 3 3 2 2 2 2 1 1 2 3 3 2 3 4 1 5 5 3 2 2 1 1 5 5
4 4 5 5 5 6 5 4 2 7 4 1 2 3 2 5 4 1 0 2 2 2 2 2 2 2 2 4 2 2 2 1 2 3 3 4 5 7 8 8 8 8 8 7 7 8 8 8 7 6 6 6 6 6 5 6 4 4 3 3 4 5 5 3 2 0 1 1 1 2 3 3 3 3 2 1 2 3 4 2 2 5 6 6 5 7 4
4 5 5 4 4 6 9 6 4 5 3 2 2 2 3 1 2 3 3 3 3 2 1 2 3 2 2 1 1 0 1 3 3 3 4 4 6 3 2 4 4 7 6 6 6 8 8 8 8 7 7 7 7 6 7 6 5 5 4 2 2 4 4 4 1 1 1 2 2 2 2 3 2 3 4 4 4 3 2 2 3 3 1 6 8 9 9
5 5 4 1 4 6 8 7 4 3 4 3 1 1 2 3 2 1 2 1 1 1 1 2 2 2 3 1 2 3 2 3 3 3 3 4 5 5 7 9 9 8 7 7 6 8 9 9 9 9 8 8 8 7 7 6 5 5 4 3 3 3 3 2 1 1 1 1 1 2 4 4 3 3 3 3 4 4 3 3 2 2 2 2 1 6 5
6 5 5 3 4 3 3 4 4 5 5 4 4 4 3 2 3 3 1 1 1 3 2 1 2 2 3 3 2 2 3 3 3 4 4 4 4 5 5 5 5 6 6 7 8 8 8 9 9 9 9 10 9 8 7 6 5 4 3 1 1 3 3 3 1 0 1 1 2 1 3 3 3 3 3 3 3 4 4 4 4 4 4 1 1 3 3
6 6 6 5 5 5 5 5 4 4 3 4 3 3 3 3 3 2 1 0 1 3 2 2 2 2 1 2 3 3 3 3 3 4 4 4 4 4 5 5 6 7 7 8 9 9 10 10 9 9 8 10 9 9 8 7 5 5 4 3 3 7 6 3 1 3 2 2 2 3 2 3 2 1 3 3 3 3 3 4 3 3 3 3 4 2 1
7 7 7 6 6 6 6 4 5 4 4 3 4 4 3 3 3 3 1 3 1 1 1 1 2 2 2 2 2 3 3 3 3 4 5 5 5 5 6 6 7 8 8 7 8 9 9 9 9 9 9 10 10 10 9 8 7 6 5 5 4 5 5 4 4 3 3 2 2 2 2 2 2 2 2 3 3 3 3 4 4 3 3 4 2 2 4
7 8 8 7 6 6 5 5 5 5 5 5 4 2 2 1 2 3 3 3 3 2 3 3 3 3 3 3 4 4 4 4 5 5 6 6 6 6 6 6 7 8 9 8 9 9 10 10 10 9 10 11 11 11 10 9 8 6 6 5 5 5 7 5 2 1 3 3 3 3 2 1 1 2 2 2 3 4 4 4 4 4 4 3 3 4 7
7 6 4 5 6 5 6 6 5 4 4 3 3 3 2 3 3 4 3 4 5 5 5 4 4 4 4 6 6 6 7 7 7 7 7 7 6 6 6 6 7 8 8 9 10 9 8 9 10 10 11 12 12 11 10 10 8 7 6 6 5 5 5 5 6 4 3 4 3 2 1 2 3 3 3 3 3 3 3 3 3 4 5 4 4 5 7
5 3 2 3 5 5 3 3 4 4 4 4 4 4 4 4 4 4 4 4 5 5 5 6 6 6 7 7 8 8 9 9 9 9 9 8 8 8 7 7 8 8 9 9 9 9 9 9 9 10 11 11 11 10 10 11 10 8 8 7 6 5 4 4 5 4 3 3 2 3 3 3 3 3 3 4 4 3 2 2 3 4 4 4 5 0 6
4 3 3 3 2 2 2 2 2 3 3 4 4 4 3 3 3 4 5 5 5 5 6 6 7 8 9 9 9 9 10 10 10 10 10 10 9 8 9 10 10 10 10 10 9 9 9 10 11 10 9 10 10 11 11 10 10 8 7 7 6 5 4 4 4 3 3 2 3 3 3 2 2 2 3 2 2 2 3 3 3 3 3 4 4 5 2
4 4 3 3 3 2 2 2 1 0 1 2 2 3 4 5 6 6 6 7 7 7 7 8 8 9 9 10 10 10 11 10 10 10 10 10 10 10 10 10 11 11 11 11 9 8 9 9 9 12 10 10 10 10 11 12 8 7 7 6 4 4 6 6 5 4 4 3 3 2 2 3 4 4 4 4 4 2 3 3 3 3 4 4 5 4 5
5 6 6 5 4 5 4 4 3 2 1 1 1 2 3 4 5 6 6 7 7 7 7 8 9 9 9 9 10 11 12 11 12 12 12 12 12 12 13 12 11 10 10 11 9 9 9 9 10 10 10 9 9 9 9 13 10 7 7 7 8 8 7 6 5 4 4 4 4 3 4 4 4 4 3 3 3 3 3 3 3 4 4 4 4 5 5
8 6 5 5 4 4 4 2 1 2 2 3 3 4 4 5 5 6 6 7 7 7 7 8 8 9 9 10 11 12 12 12 12 12 12 13 13 13 13 12 12 11 11 9 9 8 8 8 8 10 10 10 10 9 9 12 8 7 8 7 7 6 6 5 4 4 4 3 3 4 4 3 2 3 3 2 2 2 2 2 4 4 5 4 4 5 4
6 4 4 4 4 3 1 2 1 2 2 3 3 4 4 4 4 5 6 7 7 7 8 9 10 10 11 11 12 12 12 13 12 12 12 11 12 12 12 13 12 12 12 12 10 9 6 6 10 8 9 9 9 6 9 9 7 6 8 8 8 7 5 4 4 3 3 3 3 1 2 2 3 3 3 3 3 3 3 3 3 4 4 4 5 5 5
4 4 3 3 3 2 2 2 2 2 2 2 2 3 3 4 5 6 7 8 8 9 9 9 10 10 11 11 12 12 12 13 13 12 11 11 11 11 11 11 10 9 10 10 8 9 7 9 9 9 8 8 8 9 8 10 7 7 8 6 6 6 5 4 3 2 3 3 4 5 4 5 5 4 4 4 4 3 3 3 3 4 5 5 5 5 5
4 4 3 3 3 3 2 2 2 1 2 2 3 3 4 5 6 7 7 8 8 9 9 10 10 11 11 11 11 12 13 13 13 13 12 12 11 11 11 10 7 7 3 3 3 2 5 8 7 5 5 5 6 11 11 9 8 8 7 7 5 4 3 3 3 3 2 2 4 5 4 5 6 5 3 3 3 3 3 4 5 5 5 5 5 5 5
5 4 4 4 3 3 2 2 1 1 2 1 2 4 5 5 5 5 6 7 8 8 9 9 10 11 11 11 12 13 13 13 13 13 13 12 12 11 11 10 7 1 6 3 4 4 5 6 7 6 7 7 8 16 14 8 7 6 5 5 4 4 3 3 3 3 2 2 1 0 1 2 3 3 4 4 4 3 4 4 5 5 5 5 5 5 5
5 4 4 3 3 3 1 1 1 1 2 2 3 3 3 3 5 5 5 6 7 7 8 9 9 10 10 11 11 11 11 11 11 11 11 11 10 9 6 6 5 5 6 4 5 5 4 4 3 7 10 12 17 12 6 6 7 5 4 4 4 3 3 3 2 2 2 2 3 3 3 3 3 4 4 5 5 5 5 5 5 5 5 4 4 4 4
5 5 4 4 3 1 1 2 2 2 2 2 1 1 3 4 4 4 5 5 6 7 8 8 9 8 8 9 10 11 11 11 11 10 10 10 10 7 4 2 2 4 4 4 2 4 4 5 10 11 11 14 13 8 4 5 5 4 4 4 4 4 4 4 3 3 1 2 2 3 3 3 4 4 5 5 5 5 5 5 5 5 4 4 4 4 4
6 5 5 3 3 3 2 2 1 0 1 1 2 2 3 3 3 3 3 5 6 6 6 7 7 7 9 10 10 11 11 8 4 3 3 2 2 3 6 3 2 5 8 8 6 6 7 16 17 14 13 13 13 7 5 5 4 4 4 4 4 5 5 5 4 4 5 5 4 4 5 4 5 5 5 5 5 5 5 5 5 4 4 4 4 4 4
5 5 4 3 3 2 2 2 1 1 2 2 1 2 2 2 2 3 3 4 4 4 5 6 7 7 7 8 8 7 7 6 3 1 2 4 6 8 10 9 10 11 8 7 7 9 10 11 12 13 10 8 5 4 4 3 3 4 4 4 3 3 3 3 4 4 4 4 4 4 4 4 5 5 5 4 4 4 5 5 5 5 4 4 4 4 4
4 3 3 3 1 1 2 2 3 2 1 1 2 2 2 2 2 3 2 3 3 4 5 6 6 7 7 8 7 5 5 6 5 8 8 9 9 10 9 8 9 14 14 13 13 12 18 18 17 13 8 4 3 3 3 3 3 3 3 3 3 4 4 4 4 4 3 3 4 4 4 4 4 4 4 5 5 5 5 5 5 5 4 4 4 4 4
3 3 3 3 3 2 2 2 2 3 2 3 3 3 3 2 2 2 2 3 3 4 5 5 6 6 7 8 8 8 9 9 8 8 7 9 10 10 10 12 15 14 10 9 9 8 11 16 15 13 7 2 2 3 1 3 4 4 3 2 2 2 3 3 3 3 4 4 5 5 5 5 5 4 4 4 5 5 4 4 4 5 4 4 3 4 4
5 4 4 3 2 3 3 3 3 2 3 4 3 3 3 3 2 2 1 2 3 3 4 5 5 5 6 7 8 8 9 10 11 10 9 8 8 7 8 8 9 12 10 7 8 7 8 11 11 8 4 2 3 2 5 4 3 3 3 3 3 3 1 1 4 5 1 3 4 4 4 4 4 4 4 4 4 4 4 4 5 2 6 1 4 4 4
5 4 3 2 2 2 2 1 2 3 3 3 3 3 3 3 2 2 1 1 2 2 3 4 4 4 5 6 7 8 8 8 7 8 8 7 6 8 8 7 8 7 8 7 7 7 6 6 5 5 5 4 4 5 4 3 3 4 4 4 4 4 4 3 4 5 4 3 3 4 4 4 4 5 5 5 5 5 5 5 5 5 4 4 4 4 4
3 3 3 3 3 3 4 4 4 4 4 4 4 4 3 1 2 1 1 0 1 1 1 1 2 3 4 5 5 6 7 7 6 5 5 6 5 5 6 7 6 6 6 6 6 7 6 6 6 7 5 3 3 1 2 2 3 3 3 3 4 4 3 3 4 4 4 5 5 4 4 5 4 5 5 5 5 5 5 5 5 5 4 4 4 4 4
Wind_Direction
234 238 235 235 240 236 210 216 212 203 220 219 225 232 263 237 248 286 8 9 263 154 165 151 153 138 121 117 111 106 74 98 134 142 142 145 146 152 150 151 151 149 155 154 147 151 148 157 155 144 148 162 162 175 199 194 192 204 204 202 208 206 206 213 216 216 213 209 207 216 217 218 223 228 234 243 246 243 234 240 232 228 227 224 214 214 215
236 212 244 229 227 233 265 242 247 235 209 216 224 233 235 235 273 275 49 40 47 25 85 116 104 103 114 108 104 120 155 117 115 131 137 137 141 139 129 125 128 130 137 142 156 158 156 155 173 186 182 171 180 183 183 183 196 209 214 220 223 221 216 213 210 210 210 206 202 203 210 211 220 228 233 247 255 249 241 232 240 245 241 233 230 221 218
243 213 210 222 225 199 228 242 247 248 242 229 223 260 326 264 219 259 141 109 88 35 48 98 100 116 116 135 140 129 133 146 152 141 136 124 113 105 90 98 128 142 157 155 158 150 146 141 164 184 194 185 182 172 184 202 213 227 232 222 222 226 221 208 202 204 218 226 222 221 217 222 225 229 243 267 276 265 254 247 245 242 239 237 235 236 227
255 214 199 202 160 178 157 94 37 243 210 205 251 164 321 245 181 189 104 134 122 105 97 82 116 119 130 132 129 129 139 147 153 140 126 121 104 106 137 137 122 125 128 142 131 115 116 129 155 188 201 181 193 205 205 211 204 200 205 202 200 216 224 219 210 202 207 226 235 231 226 219 226 235 243 243 251 253 249 238 235 244 234 232 238 236 228
232 184 218 162 201 156 158 82 359 34 13 342 106 94 164 35 104 288 185 162 75 115 103 128 125 137 128 133 135 127 128 124 116 113 112 97 121 161 169 130 131 126 119 112 108 115 112 86 76 67 55 152 206 223 223 227 226 212 207 218 227 229 241 257 246 228 217 213 223 228 217 211 211 221 224 230 230 232 238 245 249 242 253 238 226 232 240
289 284 232 177 200 181 122 351 7 38 93 240 122 63 53 52 43 106 58 112 143 125 128 139 153 124 97 109 98 100 102 93 94 91 95 145 145 135 126 114 99 88 98 100 103 97 92 83 73 69 55 52 42 38 38 56 74 51 81 70 64 59 59 112 218 219 224 224 219 222 219 214 229 229 227 226 227 226 223 227 234 232 245 256 238 228 227
231 293 252 229 193 118 335 48 3 84 134 52 59 53 47 55 70 100 132 156 121 103 107 107 98 98 80 72 76 66 66 85 96 138 159 243 136 126 118 111 107 105 103 103 96 87 80 83 83 79 70 66 61 47 33 34 50 72 72 69 63 57 74 82 121 117 138 211 229 245 251 233 227 229 227 232 229 227 219 221 257 297 275 264 292 296 271
208 239 238 235 106 110 162 66 35 346 323 37 136 72 48 46 38 46 63 67 89 108 104 96 105 99 100 98 84 79 76 71 113 109 117 307 128 117 117 113 114 115 112 109 99 90 90 84 78 70 69 64 61 56 41 35 42 51 58 64 70 74 73 71 69 69 82 79 84 68 38 23 317 282 259 244 227 209 181 184 219 263 254 265 276 322 347
242 212 137 85 187 224 145 78 16 11 21 5 25 79 57 42 38 32 58 70 91 97 111 116 117 115 106 92 81 68 84 125 117 108 122 132 111 103 98 103 110 111 107 100 99 97 93 92 90 86 83 82 76 67 54 48 50 59 69 62 58 59 64 65 70 81 82 78 72 64 60 37 30 30 25 349 12 326 198 198 194 199 264 255 211 76 37
251 227 166 150 133 159 282 41 359 5 1 333 332 350 79 41 34 43 46 82 99 106 123 144 128 115 108 88 72 43 44 45 62 70 91 100 97 99 106 112 109 106 103 104 100 99 94 89 89 95 97 94 90 79 72 65 58 51 50 56 51 31 27 38 53 47 63 84 84 80 71 59 48 32 31 24 23 1 356 104 154 184 221 297 152 155 161
196 242 213 185 180 125 38 43 348 6 353 337 350 313 84 30 21 25 32 54 57 95 137 148 161 137 96 96 92 65 51 61 65 65 60 49 39 72 99 109 109 102 97 98 102 100 99 99 105 102 97 91 82 75 67 61 57 58 59 59 57 58 62 30 40 55 58 60 73 77 81 78 58 50 35 33 21 12 27 30 76 97 121 222 140 126 128
247 193 210 188 134 110 71 29 342 358 357 331 286 218 65 8 5 9 22 54 48 55 94 88 68 81 119 136 119 105 108 113 113 94 80 102 109 87 80 82 95 107 113 114 109 106 100 95 90 87 91 89 92 100 104 108 91 80 85 100 91 61 20 25 51 61 64 65 65 66 70 68 67 63 58 33 28 19 34 31 45 46 78 86 109 121 120
224 247 91 93 104 85 55 12 3 328 356 299 253 220 54 4 342 2 353 53 31 43 87 112 102 177 187 148 153 140 116 94 79 87 114 118 104 94 95 114 142 129 121 113 107 101 96 96 87 83 90 91 92 91 87 78 74 76 76 75 59 40 131 39 33 62 64 58 56 55 59 63 63 61 65 88 85 70 68 50 50 37 36 31 106 116 118
284 248 144 208 87 49 319 45 335 356 268 213 72 57 359 353 8 14 358 30 62 87 50 70 129 120 127 142 147 143 147 133 129 129 114 103 103 109 131 137 109 81 86 95 106 110 112 106 99 92 88 87 88 92 92 94 98 95 89 90 101 81 57 48 41 33 49 44 27 31 47 62 71 69 60 46 57 76 93 81 49 38 14 34 94 140 134
171 200 129 140 147 54 351 331 165 9 357 87 98 106 61 24 46 22 34 19 47 50 71 74 103 125 138 146 146 143 136 140 142 134 131 135 127 133 139 122 116 119 118 112 101 101 103 102 97 94 92 90 86 81 78 78 97 104 97 90 83 82 80 79 97 94 74 78 35 47 36 46 60 67 72 74 69 63 52 83 97 75 16 360 53 123 137
297 246 120 87 44 53 31 31 78 61 60 84 48 7 92 55 37 39 54 41 31 47 107 99 100 113 131 135 138 139 136 138 137 134 130 127 130 138 131 124 129 126 117 108 109 104 99 103 104 99 98 94 92 91 81 62 66 75 89 106 112 102 98 95 105 112 117 104 61 338 26 42 52 53 57 60 54 51 65 55 72 126 155 222 164 158 180
17 57 89 98 89 77 70 76 89 87 91 76 53 70 59 47 52 21 79 85 65 22 67 93 109 131 136 137 147 146 137 137 139 140 141 144 153 139 139 126 119 119 107 105 106 110 109 104 101 106 107 109 105 99 92 82 69 74 80 81 78 79 78 85 79 68 76 92 132 153 117 53 45 39 32 18 30 12 64 105 112 60 307 141 239 80 57
89 79 90 124 98 86 87 80 71 79 75 70 58 48 65 50 47 41 38 33 68 81 59 117 142 121 116 150 145 132 137 132 122 135 141 151 159 136 138 130 143 124 127 125 116 104 100 101 106 113 117 116 112 105 112 107 103 81 69 66 63 69 85 76 51 83 105 101 84 75 113 127 122 82 69 41 359 343 335 3 47 103 222 237 226 200 231
209 102 126 100 115 107 88 92 99 93 67 58 53 68 61 56 49 55 46 40 46 42 54 47 84 119 145 167 147 137 142 127 134 144 143 156 155 133 148 130 137 136 120 114 111 111 106 106 107 104 102 108 110 118 112 115 101 94 88 79 76 73 76 76 79 48 12 16 88 130 157 158 148 143 134 143 174 200 342 328 323 303 287 231 236 219 171
8 103 110 103 90 101 113 131 124 103 86 75 69 64 67 71 64 48 40 40 58 13 68 61 46 134 144 169 140 157 160 143 145 141 142 139 123 136 137 145 146 125 120 118 117 112 108 103 106 112 120 119 127 129 122 99 94 119 138 170 162 154 172 166 151 139 107 202 277 78 43 8 51 99 148 172 158 135 61 47 2 322 273 344 16 24 178
99 122 140 133 139 132 138 81 64 68 83 93 78 62 61 79 69 67 74 39 39 32 38 38 24 73 90 142 149 184 162 152 154 152 155 155 157 147 151 143 139 130 129 126 123 126 123 127 122 119 118 119 111 110 104 103 112 86 66 48 352 8 49 67 63 340 120 85 33 33 88 110 63 28 7 6 34 72 53 27 32 4 346 10 33 354 319
174 181 151 158 200 163 139 123 107 98 94 85 84 68 56 48 49 39 44 68 58 42 33 32 29 35 85 86 123 200 157 156 161 170 164 169 160 160 153 149 146 141 140 136 136 130 132 134 133 133 129 131 154 138 130 124 128 117 134 134 169 6 14 29 49 34 10 52 42 349 2 54 115 97 52 48 27 19 74 77 60 44 25 37 4 348 356
117 114 117 134 69 80 88 110 108 97 78 80 72 59 47 42 50 39 26 35 54 45 36 25 22 27 355 48 143 188 146 159 202 171 175 173 167 175 165 164 152 149 147 147 144 141 142 145 141 136 137 146 142 118 106 114 126 122 182 199 191 139 75 35 13 350 8 27 43 30 1 1 354 86 137 65 52 73 95 95 85 88 71 67 41 32 13
91 95 94 75 337 76 136 124 128 112 78 86 96 60 46 36 27 39 46 37 24 40 41 37 20 19 18 340 292 249 222 186 160 175 187 187 183 184 177 175 158 151 153 157 155 153 152 160 148 152 150 142 134 126 133 119 117 121 169 176 39 37 81 104 91 314 357 63 328 227 84 360 297 280 232 148 120 55 83 136 139 125 113 97 80 64 53
79 97 96 78 111 112 126 129 125 109 90 342 61 89 62 60 48 20 25 36 38 20 30 39 44 29 12 17 320 302 278 259 250 182 190 207 217 201 193 177 171 167 163 161 161 160 166 162 158 166 152 151 162 134 131 136 135 129 133 349 63 88 73 33 121 101 301 46 353 349 2 315 244 250 281 246 168 159 155 166 132 155 166 157 138 115 96
103 120 109 120 128 124 129 139 146 145 145 167 145 126 114 53 28 355 58 3 18 39 40 16 39 52 20 11 359 327 292 280 345 8 209 212 209 201 202 186 182 184 170 166 165 166 166 166 165 167 156 161 146 141 147 135 136 130 124 94 59 35 32 27 13 358 339 18 323 39 75 342 334 324 303 328 336 328 165 164 182 205 204 255 164 137 135
125 128 152 163 178 155 168 250 161 139 122 130 115 121 135 119 172 242 90 96 23 336 38 48 62 41 34 45 11 1 340 323 231 226 219 225 245 225 208 198 184 187 182 182 172 164 166 163 169 169 172 162 148 152 139 133 133 132 121 131 122 92 64 344 310 204 319 320 359 360 359 345 336 297 312 314 272 277 307 272 195 180 182 181 205 227 201
158 164 191 204 183 202 173 151 112 132 127 148 147 208 120 184 226 219 202 170 150 79 37 13 13 2 307 65 340 142 229 224 255 265 257 231 225 224 341 293 244 189 204 206 188 166 174 174 176 179 176 161 160 160 149 145 149 145 143 145 166 146 144 175 222 2 3 34 7 335 337 338 318 317 319 313 293 303 284 265 272 297 242 161 169 200 227
172 179 189 196 60 52 90 112 132 155 166 155 161 244 216 238 192 212 240 194 35 252 193 72 15 348 333 341 305 300 297 286 271 267 273 275 276 247 215 209 233 223 201 209 202 180 184 183 184 185 179 169 171 170 157 158 162 159 162 184 164 157 155 118 23 53 28 24 323 12 350 301 295 291 293 296 309 306 293 284 302 312 309 338 145 152 197
174 174 167 163 138 148 157 164 182 174 193 171 183 196 235 269 253 238 293 13 56 315 67 68 300 357 360 329 347 339 319 316 300 277 267 265 260 260 246 237 232 230 214 207 208 188 202 196 195 193 180 168 171 167 162 166 163 152 141 110 26 53 71 60 74 164 203 243 118 140 235 233 239 271 273 291 305 301 307 312 342 331 318 304 305 295 251
178 169 179 168 183 182 195 180 175 187 191 171 210 216 183 224 269 284 219 63 249 261 39 352 16 327 347 360 349 341 324 313 302 289 283 270 257 249 253 237 230 228 222 218 215 205 205 201 198 200 182 173 171 172 172 174 169 166 165 174 153 87 73 49 311 294 293 271 203 238 228 249 285 294 310 315 303 292 290 292 277 270 256 278 280 278 304
175 178 190 187 194 201 196 186 186 206 201 206 213 225 225 213 232 230 207 247 275 2 3 305 334 335 345 355 338 318 307 303 296 285 276 270 265 251 239 238 238 246 250 236 224 219 216 211 206 201 181 180 173 177 174 180 176 182 185 180 172 164 153 203 210 197 249 229 260 250 260 282 259 262 252 243 250 266 280 270 277 277 293 297 294 300 23
185 188 195 200 203 213 215 199 212 208 211 221 231 250 248 243 254 253 243 249 269 259 283 283 292 304 305 293 290 291 291 287 282 278 273 267 260 256 247 239 234 234 241 247 244 230 224 218 211 201 189 183 180 182 182 182 182 194 188 185 201 156 151 178 329 260 202 238 226 238 259 219 265 262 261 275 284 301 296 300 294 293 282 286 280 68 83
198 205 205 201 215 218 217 212 202 223 216 236 231 227 237 241 244 263 267 258 259 264 273 282 287 293 294 284 279 278 278 278 270 268 266 264 262 263 260 249 242 241 242 239 239 238 230 222 214 207 193 186 185 186 188 184 187 198 197 196 198 179 180 170 174 212 214 212 220 162 250 277 274 268 258 248 258 259 281 297 310 313 308 306 308 101 107
203 201 166 199 198 213 218 234 228 234 242 242 235 241 244 252 254 259 278 289 287 293 295 296 293 286 285 289 289 284 279 274 274 272 274 275 273 270 272 270 262 251 243 239 234 233 234 233 219 213 199 194 190 190 188 191 190 198 193 200 204 195 192 192 191 198 211 201 212 216 203 216 226 214 252 294 294 293 273 267 289 299 300 301 301 54 125
188 156 164 176 187 186 209 242 256 253 251 258 265 262 252 259 280 275 264 268 280 278 276 280 284 284 282 283 282 282 280 280 279 277 275 274 274 269 263 261 261 260 256 252 239 237 234 231 222 215 208 198 201 207 203 195 196 195 185 190 193 199 200 203 218 221 213 237 215 225 247 282 321 310 314 295 266 258 262 285 283 281 279 286 286 287 177
179 159 147 138 138 151 126 111 95 341 307 300 295 285 271 266 270 279 281 279 280 284 287 285 282 280 278 277 277 277 276 278 280 280 280 279 277 274 271 269 265 265 263 258 245 240 237 237 212 175 200 207 207 209 207 201 200 192 176 167 144 200 218 213 206 212 209 198 240 243 246 231 228 228 222 224 247 258 282 279 271 273 283 289 292 294 301
127 121 122 119 117 112 104 90 67 72 50 270 280 288 300 297 298 300 300 298 292 292 294 290 285 287 286 285 281 281 280 279 276 274 273 270 268 267 265 261 262 264 260 259 256 246 238 226 170 170 200 205 209 207 190 190 209 199 184 184 198 205 208 209 198 205 208 202 189 219 221 233 248 236 206 211 220 245 259 263 277 295 297 299 303 311 310
118 115 112 107 103 106 107 106 109 55 15 349 332 330 321 322 312 308 297 295 296 296 292 288 286 278 275 275 273 268 267 264 261 260 259 260 261 260 263 266 266 266 270 281 279 265 244 226 179 191 196 208 203 213 175 172 195 215 215 222 210 211 213 207 211 193 204 209 208 212 213 235 264 282 276 257 268 287 283 292 309 309 302 300 300 291 285
126 132 121 135 130 101 80 75 31 21 11 3 341 325 329 319 302 294 292 293 296 293 290 291 289 286 287 286 282 280 278 279 279 278 276 276 272 271 270 266 262 260 263 265 264 261 262 175 195 199 198 202 207 172 143 152 156 202 227 223 227 214 208 188 191 205 194 201 204 147 279 290 277 269 265 274 272 259 268 261 242 249 261 275 277 278 282
150 151 145 115 104 90 75 38 39 38 26 359 350 343 337 326 325 314 308 305 305 303 302 294 285 282 279 277 275 275 277 276 276 274 274 272 270 266 263 262 262 262 256 257 260 262 224 198 223 210 210 206 198 139 143 144 156 211 217 216 210 202 190 179 180 191 215 216 201 205 228 256 249 243 249 260 261 268 265 267 275 274 273 274 277 278 283
148 137 125 109 98 89 76 75 46 28 36 20 4 338 329 328 322 311 309 306 303 302 296 289 290 296 298 303 298 285 279 277 278 278 273 266 261 264 263 261 265 283 18 54 83 182 184 197 206 211 212 183 170 138 138 153 182 202 206 204 193 172 164 167 173 190 219 265 297 293 274 266 275 276 271 257 252 255 274 280 277 273 274 275 277 280 281
141 133 120 110 106 103 95 86 36 38 359 342 358 351 338 323 317 316 312 308 304 303 303 300 299 295 290 283 276 275 274 273 268 266 268 269 266 260 262 272 282 17 110 212 223 212 196 194 191 191 156 149 116 121 141 167 177 191 196 179 165 159 161 160 168 183 194 168 130 154 223 245 262 285 290 282 268 255 258 259 260 263 264 260 259 260 265
131 124 122 123 115 98 116 134 109 23 300 352 1 330 323 326 331 325 326 329 317 313 309 307 306 304 299 294 290 285 279 272 267 262 261 261 258 249 245 258 253 130 167 201 200 215 177 141 133 116 93 101 121 136 153 172 185 177 176 166 158 162 158 164 163 177 175 185 178 191 216 242 261 266 269 265 262 262 253 251 255 261 261 264 271 277 281
133 123 123 113 114 118 73 46 8 358 358 338 305 18 3 359 347 334 327 322 324 327 322 319 317 312 306 304 296 290 284 286 280 279 275 269 263 264 186 160 184 177 137 104 120 95 140 138 112 103 106 110 108 114 155 162 171 172 163 160 160 162 158 164 169 179 200 195 193 229 247 251 245 246 244 251 260 266 263 260 253 254 259 266 267 266 266
137 136 128 135 116 84 64 41 75 204 189 211 138 116 54 35 1 343 356 352 344 342 337 329 323 322 320 313 303 306 306 294 320 23 55 63 103 356 360 8 92 95 113 111 116 104 102 106 105 102 106 108 110 114 131 157 162 152 154 162 168 168 173 171 176 196 207 217 234 241 242 235 237 237 239 246 247 248 250 266 272 268 262 264 261 266 267
150 158 148 109 97 105 122 141 114 189 175 178 163 81 58 41 30 30 27 17 9 2 359 356 344 339 328 324 320 321 334 325 302 355 6 58 56 79 90 77 87 96 108 127 115 108 111 109 106 105 103 108 119 135 136 147 139 145 162 173 160 171 194 193 208 213 212 219 225 239 248 254 250 246 246 255 260 262 260 246 240 246 245 241 249 252 255
165 158 123 110 116 128 159 160 179 166 172 100 81 113 108 93 63 57 44 35 26 23 21 18 3 0 3 355 347 356 353 349 7 55 57 66 65 76 70 69 71 80 81 80 87 107 114 115 114 111 111 108 111 113 106 123 144 154 161 159 188 185 205 205 209 227 200 198 211 219 224 227 238 253 254 240 237 240 243 243 243 247 251 247 239 244 251
156 138 121 155 157 179 188 165 168 188 164 123 146 124 129 131 120 81 50 35 23 27 39 36 33 28 24 22 20 31 40 40 59 77 67 75 85 80 74 72 67 63 74 87 89 85 106 113 113 116 126 230 157 120 149 155 161 159 163 171 210 221 210 199 183 181 207 207 205 220 225 230 229 230 231 245 252 248 242 248 252 252 251 247 245 251 254
172 168 191 185 160 183 174 188 191 157 147 165 137 160 167 190 152 99 94 58 43 24 33 33 43 52 43 44 48 58 66 74 78 77 77 83 88 88 85 84 91 90 87 83 98 112 115 116 116 105 85 356 328 202 200 188 184 184 176 169 185 197 176 17 49 22 256 220 220 216 224 239 241 234 241 246 243 244 249 246 245 162 85 275 254 258 250
175 188 195 141 178 177 207 242 128 163 179 149 165 160 189 209 125 173 154 44 60 37 35 49 44 49 62 69 73 78 84 87 86 92 96 93 95 100 101 104 106 116 120 122 123 126 143 150 142 146 180 184 199 232 246 210 173 174 185 183 192 205 174 199 215 202 219 231 228 228 232 232 227 229 232 237 234 237 236 234 239 244 238 240 233 241 240
162 179 141 176 177 177 191 160 173 181 175 188 185 189 211 173 186 180 144 239 328 58 63 83 81 64 58 75 85 94 101 102 105 104 101 98 96 99 115 123 126 132 138 136 139 146 144 150 156 178 185 156 245 294 45 257 218 184 188 192 200 206 200 199 206 215 210 217 225 237 236 238 235 234 230 233 237 236 233 234 235 235 235 238 241 241 245